Flag for United Kingdom Weather past 2 weeks in Gloucester, England, United Kingdom

Now
38 °F

Chilly.


Feels Like: 31 °F
Forecast: 37 / 44 °F
Wind: 9 mph from Southwest

Location: Pershore

Current Time: Mar 2, 2015 at 1:28:11 AM

Latest Report: Mar 2, 2015 at 12:00 AM


Visibility: 14 mi

Pressure: 29.56 "Hg

Humidity: 77%

Dew point: 31 °F

Location of GloucesterLocation

Historic Weather in Gloucester — Graph

°F

Gloucester temperature yesterday

Maximum temperature yesterday: 52 °F (at 12:00 AM)
Minimum temperature yesterday: 35 °F (at 11:00 PM)
Average temperature yesterday: 44 °F

Past Weeks' High & Low Weather Summary

 TemperatureHumidityPressure
High53 °F (Feb 25, 3:00 PM)100% (Feb 20, 12:00 AM)30.74 "Hg (Feb 20, 12:00 AM)
Low28 °F (Feb 17, 5:00 AM)51% (Feb 27, 3:00 PM)29.18 "Hg (Feb 22, 9:00 PM)
Average42 °F83%29.87 "Hg
* Reported Midnight between Feb 14 and Feb 15 — Midnight between Mar 1 and Mar 2, Gloucester, Weather by CustomWeather, © 2015

Note: Actual official high and low records may vary slightly from our data, if they occured in-between our weather recording intervals... More about our weather records

Advertising

Gloucester weather history for previous 24 hours

 ConditionsComfort  
Time TempWeatherWind HumidityBarometerVisibility
12:00 AM
Mon, Mar 2
38 °FChilly.9 mph77%29.56 "Hg14 mi
11:00 PM
Sun, Mar 1
35 °FChilly.3 mph83%29.55 "Hg19 mi
10:00 PM37 °FChilly.6 mph82%29.53 "Hg19 mi
9:00 PM37 °FChilly.5 mph79%29.50 "Hg19 mi
8:00 PM39 °FChilly.9 mph75%29.47 "Hg28 mi
7:00 PM40 °FChilly.10 mph78%29.44 "Hg31 mi
6:00 PM42 °FQuite cool.16 mph86%29.38 "Hg19 mi
5:00 PM43 °FQuite cool.16 mph81%29.38 "Hg28 mi
4:00 PM42 °FQuite cool.20 mph85%29.41 "Hg28 mi
3:00 PM49 °FCool.21 mph56%29.44 "Hg11 mi
2:00 PM47 °FCool.13 mph70%29.50 "Hg11 mi
1:00 PM48 °FCool.14 mph61%29.54 "Hg14 mi
12:00 PM49 °FCool.15 mph55%29.57 "Hg12 mi
11:00 AM47 °FCool.15 mph56%29.58 "Hg12 mi
10:00 AM47 °FCool.15 mph57%29.56 "Hg15 mi
9:00 AM46 °FCool.13 mph62%29.54 "Hg12 mi
8:00 AM44 °FQuite cool.15 mph67%29.50 "Hg15 mi
7:00 AM43 °FQuite cool.17 mph71%29.50 "Hg18 mi
6:00 AM44 °FQuite cool.14 mph68%29.50 "Hg17 mi
5:00 AM45 °FQuite cool.14 mph66%29.47 "Hg16 mi
4:00 AM45 °FCool.14 mph67%29.44 "Hg19 mi
3:00 AM46 °FCool.16 mph67%29.44 "Hg18 mi
2:00 AM47 °FCool.20 mph69%29.44 "Hg19 mi
1:00 AM49 °FCool.18 mph65%29.41 "Hg9 mi
Weather by CustomWeather, © 2015

See weather overviewHow to use our weather pages